Location: B?jaj?g
(11.7167°N, 92.6667°E)
Time: 13:25:15
(UTC+00:00)

Hubble Space Telescope - Pass Details

Date: 18 September 2020
Orbit: 536 x 540 km, 28.5° (Epoch: 22 October)

Event Time Altitude Azimuth Distance (km) Brightness Sun altitude
Exits shadow 21:41:36 13° 143° (SE) 1,573 3.4 -29.4°
Drops below altitude 10° 21:43:16 10° 119° (ESE) 1,773 4.0 -29.0°
Sets 21:46:32 0° 92° (E) 2,663 5.5 -28.2°
